FW1241 Weather Reports


Display with metric or nautical units.
time (UTC)temp
F
wind
direction
speed
MPH
gust
MPH
rain 1hr
in
rain 24hr
in
rain mn
in
humidity
%
barometer
mb
20260831095604 65 110 0.0 0.0 0.00 0.00 0.00 66 1008.9
20260831095104 65 110 0.0 0.0 0.00 0.00 0.00 67 1008.8
20260831094104 65 110 0.0 0.0 0.00 0.00 0.00 68 1008.8
20260831093605 65 110 0.0 0.0 0.00 0.00 0.00 69 1008.8
20260831093104 65 110 0.0 0.0 0.00 0.00 0.00 69 1008.8
20260831092105 65 107 0.0 0.0 0.00 0.00 0.00 71 1008.8
20260831091105 65 108 0.0 1.0 0.00 0.00 0.00 72 1008.7
20260831090604 65 108 0.0 0.0 0.00 0.00 0.00 72 1008.7
20260831090104 65 108 0.0 0.0 0.00 0.00 0.00 72 1008.7
20260831085105 65 108 0.0 0.0 0.00 0.00 0.00 74 1008.7
20260831083105 66 105 0.0 1.0 0.00 0.00 0.00 75 1008.7
20260831082105 66 77 0.0 1.0 0.00 0.00 0.00 77 1008.8
20260831081604 66 120 0.0 0.0 0.00 0.00 0.00 77 1008.8
20260831081105 66 120 0.0 0.0 0.00 0.00 0.00 77 1008.8
20260831080604 66 125 0.0 0.0 0.00 0.00 0.00 77 1008.7
20260831080104 66 126 0.0 0.0 0.00 0.00 0.00 76 1008.7
20260831074104 68 126 0.0 0.0 0.00 0.00 0.00 74 1008.6
20260831073604 68 126 0.0 0.0 0.00 0.00 0.00 73 1008.6
20260831073104 68 126 0.0 1.0 0.00 0.00 0.00 72 1008.5
20260831071105 69 274 0.0 0.0 0.00 0.00 0.00 72 1008.3
20260831070104 69 291 0.0 0.0 0.00 0.00 0.00 72 1008.3
20260831065604 70 291 0.0 0.0 0.00 0.00 0.00 72 1008.3
20260831065104 70 290 0.0 0.0 0.00 0.00 0.00 72 1008.3
20260831064604 70 291 0.0 0.0 0.00 0.00 0.00 70 1008.3
20260831064104 71 291 0.0 0.0 0.00 0.00 0.00 71 1008.3
20260831063604 71 291 0.0 0.0 0.00 0.00 0.00 69 1008.3
20260831061604 72 290 0.0 0.0 0.00 0.00 0.00 66 1008.3
20260831061105 73 290 0.0 0.0 0.00 0.00 0.00 64 1008.3
20260831060605 73 290 0.0 0.0 0.00 0.00 0.00 63 1008.3
20260831060104 73 290 0.0 0.0 0.00 0.00 0.00 62 1008.2
20260831055104 73 290 0.0 0.0 0.00 0.00 0.00 60 1008.2
20260831054105 74 290 0.0 0.0 0.00 0.00 0.00 60 1008.3
20260831053604 74 290 0.0 0.0 0.00 0.00 0.00 59 1008.3
20260831053104 74 290 0.0 0.0 0.00 0.00 0.00 59 1008.2
20260831052604 75 290 0.0 0.0 0.00 0.00 0.00 59 1008.2
20260831051604 75 290 0.0 0.0 0.00 0.00 0.00 59 1008.2
20260831051104 75 290 0.0 0.0 0.00 0.00 0.00 56 1008.2
20260831050604 76 290 0.0 0.0 0.00 0.00 0.00 57 1008.3
20260831045604 75 290 0.0 0.0 0.00 0.00 0.00 56 1008.3
20260831045104 75 290 0.0 0.0 0.00 0.00 0.00 58 1008.3
20260831044104 75 290 0.0 0.0 0.00 0.00 0.00 58 1008.3
20260831043104 76 290 0.0 0.0 0.00 0.00 0.00 57 1008.1
20260831042104 76 290 0.0 0.0 0.00 0.00 0.00 57 1008.0
20260831041105 77 290 0.0 0.0 0.00 0.00 0.00 57 1007.9
20260831040605 77 290 0.0 0.0 0.00 0.00 0.00 57 1007.8
20260831040104 77 291 0.0 0.0 0.00 0.00 0.00 54 1007.8
20260831035604 77 291 0.0 0.0 0.00 0.00 0.00 53 1007.8
20260831034105 79 291 0.0 0.0 0.00 0.00 0.00 50 1007.4
20260831032604 80 291 0.0 0.0 0.00 0.00 0.00 49 1007.3
20260831031604 80 290 0.0 0.0 0.00 0.00 0.00 47 1007.3
20260831031104 81 291 0.0 0.0 0.00 0.00 0.00 45 1007.2
20260831030104 82 290 0.0 0.0 0.00 0.00 0.00 44 1007.1
20260831025105 83 291 0.0 0.0 0.00 0.00 0.00 43 1007.1
20260831024104 84 291 0.0 0.0 0.00 0.00 0.00 42 1007.1
20260831023605 85 291 0.0 0.0 0.00 0.00 0.00 41 1007.1
20260831023104 85 290 0.0 0.0 0.00 0.00 0.00 40 1007.1
20260831022604 85 291 0.0 0.0 0.00 0.00 0.00 39 1007.1
20260831022104 86 291 0.0 0.0 0.00 0.00 0.00 39 1007.2
20260831020604 88 291 0.0 0.0 0.00 0.00 0.00 37 1007.2
20260831020104 88 291 0.0 0.0 0.00 0.00 0.00 35 1007.2
20260831015104 90 290 0.0 1.0 0.00 0.00 0.00 34 1007.2
20260831014105 91 270 0.0 1.0 0.00 0.00 0.00 30 1007.2
20260831013104 92 302 1.0 3.0 0.00 0.00 0.00 30 1007.2
20260831012604 92 308 0.0 1.0 0.00 0.00 0.00 31 1007.2
20260831011605 94 311 1.0 2.0 0.00 0.00 0.00 29 1007.2
20260831010604 94 288 0.0 1.0 0.00 0.00 0.00 29 1007.3
20260831004604 94 304 1.0 3.0 0.00 0.00 0.00 29 1007.4
20260831003604 94 276 0.0 1.0 0.00 0.00 0.00 29 1007.3
20260831002604 94 320 0.0 2.0 0.00 0.00 0.00 29 1007.4
20260831002104 94 296 1.0 3.0 0.00 0.00 0.00 29 1007.5
20260831001104 94 321 0.0 3.0 0.00 0.00 0.00 29 1007.6
20260831000604 94 300 1.0 3.0 0.00 0.00 0.00 28 1007.6
20260830235104 94 293 1.0 3.0 0.00 0.00 0.00 26 1007.6
20260830234604 94 263 0.0 3.0 0.00 0.00 0.00 28 1007.6
20260830233605 94 13 1.0 3.0 0.00 0.00 0.00 29 1007.7
20260830233105 93 237 1.0 3.0 0.00 0.00 0.00 29 1007.7
20260830232104 93 281 1.0 5.0 0.00 0.00 0.00 28 1007.9
20260830231104 93 303 1.0 3.0 0.00 0.00 0.00 28 1008.0
20260830230604 93 294 0.0 2.0 0.00 0.00 0.00 28 1008.1
20260830225105 93 285 0.0 3.0 0.00 0.00 0.00 28 1008.2
20260830224605 93 311 0.0 2.0 0.00 0.00 0.00 28 1008.2
20260830222604 93 279 1.0 2.0 0.00 0.00 0.00 28 1008.5
20260830221104 94 302 0.0 2.0 0.00 0.00 0.00 28 1008.7
20260830215604 93 306 1.0 3.0 0.00 0.00 0.00 27 1008.9
20260830215104 93 309 0.0 2.0 0.00 0.00 0.00 28 1009.1
20260830214604 93 307 0.0 1.0 0.00 0.00 0.00 30 1009.2
20260830214104 92 357 0.0 3.0 0.00 0.00 0.00 28 1009.2
20260830213604 92 313 1.0 3.0 0.00 0.00 0.00 26 1009.3
20260830213104 92 133 0.0 1.0 0.00 0.00 0.00 28 1009.4
20260830212604 92 356 1.0 3.0 0.00 0.00 0.00 27 1009.5
20260830212104 91 280 0.0 1.0 0.00 0.00 0.00 30 1009.6
20260830205104 90 297 1.0 3.0 0.00 0.00 0.00 31 1010.0
20260830203605 89 345 0.0 1.0 0.00 0.00 0.00 34 1010.1
20260830203104 88 302 0.0 2.0 0.00 0.00 0.00 33 1010.1
20260830202604 88 292 1.0 2.0 0.00 0.00 0.00 34 1010.2
20260830201604 88 288 0.0 1.0 0.00 0.00 0.00 33 1010.4
20260830195605 88 195 0.0 3.0 0.00 0.00 0.00 35 1010.5
20260830195104 88 301 0.0 2.0 0.00 0.00 0.00 34 1010.6
20260830194604 88 314 0.0 2.0 0.00 0.00 0.00 35 1010.7
20260830193604 87 194 0.0 0.0 0.00 0.00 0.00 35 1010.9
20260830193104 87 184 1.0 5.0 0.00 0.00 0.00 38 1011.0
20260830192604 86 171 0.0 1.0 0.00 0.00 0.00 38 1011.0
20260830191604 85 198 1.0 5.0 0.00 0.00 0.00 36 1011.1
20260830191106 85 184 1.0 3.0 0.00 0.00 0.00 38 1011.2
20260830190104 85 297 1.0 3.0 0.00 0.00 0.00 37 1011.3
20260830185604 85 319 0.0 2.0 0.00 0.00 0.00 40 1011.3
20260830185104 85 146 0.0 3.0 0.00 0.00 0.00 41 1011.4
20260830182604 83 199 0.0 2.0 0.00 0.00 0.00 42 1011.5
20260830182104 83 287 0.0 1.0 0.00 0.00 0.00 41 1011.6
20260830181604 82 203 1.0 5.0 0.00 0.00 0.00 44 1011.6
20260830181104 82 342 0.0 3.0 0.00 0.00 0.00 42 1011.7
20260830175104 80 264 0.0 2.0 0.00 0.00 0.00 45 1011.7
20260830173605 79 158 0.0 5.0 0.00 0.00 0.00 47 1011.8
20260830173105 79 217 1.0 3.0 0.00 0.00 0.00 45 1011.8
20260830172104 78 117 1.0 2.0 0.00 0.00 0.00 48 1011.8
20260830171604 78 201 1.0 6.0 0.00 0.00 0.00 46 1011.8
20260830171104 77 217 0.0 5.0 0.00 0.00 0.00 50 1011.8
20260830170604 77 124 0.0 2.0 0.00 0.00 0.00 52 1011.8
20260830164604 75 192 1.0 3.0 0.00 0.00 0.00 51 1011.8
20260830164104 75 175 1.0 3.0 0.00 0.00 0.00 54 1011.8
20260830163604 74 180 1.0 3.0 0.00 0.00 0.00 55 1011.9
20260830162604 73 191 0.0 2.0 0.00 0.00 0.00 59 1011.9
20260830162104 73 108 0.0 2.0 0.00 0.00 0.00 59 1011.9
20260830155604 70 118 1.0 3.0 0.00 0.00 0.00 64 1012.0
20260830155105 70 130 1.0 3.0 0.00 0.00 0.00 66 1012.0
20260830154104 69 91 0.0 2.0 0.00 0.00 0.00 69 1012.1
20260830151104 66 105 0.0 1.0 0.00 0.00 0.00 76 1011.9
20260830145104 63 185 0.0 2.0 0.00 0.00 0.00 82 1011.7
20260830143104 62 186 0.0 2.0 0.00 0.00 0.00 85 1011.5
20260830142604 62 118 0.0 2.0 0.00 0.00 0.00 85 1011.4
20260830141104 61 200 0.0 1.0 0.00 0.00 0.00 87 1011.2
20260830140104 61 163 0.0 1.0 0.00 0.00 0.00 87 1011.0
20260830135104 61 122 0.0 0.0 0.00 0.00 0.00 87 1010.9
20260830134104 61 122 0.0 1.0 0.00 0.00 0.00 87 1010.7
20260830133604 61 122 0.0 0.0 0.00 0.00 0.00 87 1010.6
20260830133105 62 122 0.0 1.0 0.00 0.00 0.00 87 1010.5
20260830131604 62 256 0.0 0.0 0.00 0.00 0.00 86 1010.3
20260830124104 63 270 0.0 0.0 0.00 0.00 0.00 84 1010.1
20260830123604 64 270 0.0 0.0 0.00 0.00 0.00 83 1010.0
20260830122604 64 270 0.0 0.0 0.00 0.00 0.00 80 1009.9
20260830122104 64 270 0.0 0.0 0.00 0.00 0.00 79 1009.9
20260830121603 64 270 0.0 0.0 0.00 0.00 0.00 79 1009.9
20260830115604 64 270 0.0 0.0 0.00 0.00 0.00 78 1009.9
20260830114604 65 270 0.0 0.0 0.00 0.00 0.00 77 1009.9
20260830113604 65 270 0.0 0.0 0.00 0.00 0.00 76 1009.9
20260830113104 65 270 0.0 0.0 0.00 0.00 0.00 77 1009.9
20260830111104 66 270 0.0 0.0 0.00 0.00 0.00 79 1009.9
20260830103604 67 270 0.0 0.0 0.00 0.00 0.00 73 1009.8
20260830102104 67 270 0.0 0.0 0.00 0.00 0.00 72 1009.8